User: anonymous   Login
Location: Dammartin
(48.9032°N, 1.6195°E)
Time: 22:17:08
(UTC+00:00)
Language:

PEGASUS R/B - Orbit

View from above orbital plane
View from above orbital plane
View from above satellite
View from above satellite

Ground track
Ground track

The orbit data is extracted from the following two-line orbital elements,

1 39198U 13033B   24148.51570919  .00001454  00000-0  18646-3 0  9998
2 39198  97.9307 339.0258 0020748 217.3756 142.6015 14.82659339589448
Epoch (UTC): 27 May 2024 12:22:37
Eccentricity: 0.0020748
inclination: 97.9307°
perigee height: 606 km
apogee height: 635 km
right ascension of ascending node: 339.0258°
argument of perigee: 217.3756°
revolutions per day: 14.82659339
mean anomaly at epoch: 142.6015°
orbit number at epoch: 58944

The dashed part of the orbit path shows where the satellite is in the earth's shadow,  

DLR